FENGYUN 1C DEB, 30526

Orbit data source: Space-Track

FENGYUN 1C DEB, 30526 is space debris in SSO originally from a launch on Mon, 10 May 1999 UTC launched from the Taiyaun Space Center, China (TSC). Fengyun 1C debris stems from the Chinese weather satellite Fengyun-1C, which was intentionally destroyed by a Chinese anti-satellite missile in 2007. This event dramatically increased the amount of space debris, with thousands of trackable fragments posing hazards to satellites and human spaceflight. The Fengyun 1C debris cloud has become a focal point in discussions about space sustainability and the need for international regulations to prevent the creation of new debris.

Loading next visibility...
Identifier
30526, 1999-025AJQ
Orbit
SSO
Country
Flag of CNCN / PRC
Related business
Manufacturer
Unknown
Mission
Spacecraft
Bus & Motor
Unknown
Mass
Unknown
Launch date (UTC)
1999-05-10 (27 years ago)
Launch vehicle
Unknown
Launch site
Taiyaun Space Center, China (TSC)
Object type
Payload
Rocket body
Debris
Shape & HBR
Unknown shape, 0.1 m
Radar Cross Section
Medium (>0.1 m² and <1 m²)

Expand to show TLE details & history
Last TLE update: 14 hours ago

TLE from 14 hours ago
0 FENGYUN 1C DEB
1 30526U 99025AJQ 26208.15100373  .00000139  00000-0  20954-3 0  9995
2 30526  99.5362 286.2152 0307412  58.4786 304.5992 13.50216510957134
Epoch: 2026-07-27T03:37Z
TLE epoch observation values (Epoch: 2026-07-27T03:37:26.722Z)
Latitude
0.00003°
Longitude
-72.98485°
Altitude
949.088 km
Speed
7.439 km/s
True Right ascension
19h 04m 51s
True Declination
0° 00' 00"
Sunlit
Object was in full shadow at epoch
Visualization orbit readout
Latitude
Unknown
Longitude
Unknown
Altitude
Unknown
Speed
Unknown
Apparent Right ascension
Unknown
Apparent Declination
Unknown
Sunlit
N/A
Visualization observer readout
Local Sidereal Time
07:11:01
Azimuth
Unknown
Elevation
Unknown
Doppler factor
Unknown
Orbital elements
Apogee altitude
1,297.677 km
Perigee altitude
839.825 km
Semi-major axis
7,446.888 km
Eccentricity
0.03074
Inclination
99.5362°
RAAN
286.2152°
Arg. of periapsis
58.4786°
True anomaly
301.63623°
Mean anomaly
304.5992°
Eccentric anomaly
303.1241°
Mean motion
3.37739 °/min
Orbital period
106.59 mins
BSTAR
0.00020954
Loading maneuver chart data...
Computing Atmospheric mass density...

Documentation

Showing up to 5 results
|